Location: Bu�n Treun
(12.1333°N, 108.3167°E)
Time: 06:26:07
(UTC+00:00)

BEESAT - Pass Details

Date: 06 October 2021
Orbit: 699 x 709 km, 98.6° (Epoch: 16 October)

Event Time Altitude Azimuth Distance (km) Brightness Sun altitude
Exits shadow 11:53:34 29° 36° (NE) 1,278 ? -20.3°
Maximum altitude 11:55:49 55° 102° (ESE) 835 ? -20.9°
Drops below altitude 10° 12:00:26 10° 180° (S) 2,160 ? -22.0°
Sets 12:02:44 0° 184° (S) 3,079 ? -22.6°
